Simultaneous Nadir Overpasses (SNOs) Predictions

Prediction of SNOs between AQUA and METOP-A Satellite Orbit:

Table of predicted SNOs for the next 14.0 days since TLE Epoch: 12/21/2018
Index Date (AQUA) Time (AQUA) Lat,Lon (AQUA) SZA (AQUA ) Date (METOP-A) Time (METOP-A) Lat,Lon (METOP-A) SZA (METOP-A ) Distance(km) Time Diff (sec)
1 12/23/2018 22:00:24 -74.64, 22.27 81.91 12/23/2018 21:59:11 -74.60, 21.80 81.92 14.37 73
2 12/23/2018 22:49:54 74.75,-170.38 98.21 12/23/2018 22:49:47 74.76,-170.42 98.23 1.83 7
3 12/23/2018 23:39:21 -74.84, -2.95 81.70 12/23/2018 23:40:28 -74.81, -2.96 81.73 2.78 67
4 12/26/2018 17:34:39 -74.59, 88.83 82.03 12/26/2018 17:33:27 -74.55, 88.08 82.03 22.44 72
5 12/26/2018 18:24:10 74.75,-103.94 98.15 12/26/2018 18:24:02 74.76,-104.02 98.16 2.46 8
6 12/26/2018 19:13:37 -74.84, 63.48 81.76 12/26/2018 19:14:43 -74.81, 63.44 81.80 3.10 66
7 12/29/2018 13:08:55 -74.59, 155.25 82.15 12/29/2018 13:07:43 -74.50, 154.36 82.20 28.58 72
8 12/29/2018 13:58:26 74.76, -37.52 98.03 12/29/2018 13:58:17 74.76, -37.63 98.04 3.16 9
9 12/29/2018 14:47:53 -74.84, 129.91 81.88 12/29/2018 14:48:57 -74.86, 129.97 81.88 2.58 64
10 01/01/2019 08:43:10 -74.55,-138.21 82.38 01/01/2019 08:41:58 -74.49,-139.25 82.39 31.59 72
11 01/01/2019 09:32:42 74.77, 28.89 97.85 01/01/2019 09:32:31 74.80, 28.89 97.89 3.29 11
12 01/01/2019 10:22:08 -74.85,-163.68 82.06 01/01/2019 10:23:11 -74.85,-163.63 82.07 1.39 63
13 01/04/2019 04:17:24 -74.51, -71.68 82.67 01/04/2019 04:16:13 -74.44, -72.99 82.68 39.92 71
14 01/04/2019 05:06:57 74.78, 95.29 97.62 01/04/2019 05:06:45 74.79, 95.28 97.63 0.88 12




NCC Satellite Simultaneous Nadir Overpasses (SNOs) Prediction Service
